Погода в Гавриловом Посаде

Россия / Ивановская область     56°33′30″N   40°07′12″E
темп.,
°C
ветер,
м/с
пор.,
м/с
влажн.,
%
обл.,
%
осадки,
мм/ч
давл.,
гПа
погр.,
м
17 мая, пн
пн1700:00+13з22890 0.0 101412
03:00+12сз00865 0.0 101511
06:00+15в11855 0.0 101532
09:00+19вюв3474100 0.0 1016433
12:00+23вюв456252 0.0 1015950
15:00+24вюв56615 0.0 10141014
18:00+24в5973100 0.0 1013314
21:00+19вюв479020 0.8 1013112
18 мая, вт
вт1800:00+16юв4108492 0.0 1013151
03:00+14юв3983100 0.0 1013127
06:00+15вюв4128128 0.0 1013231
09:00+21юв5136526 0.0 1013437
12:00+25юв6115727 0.0 1013990
15:00+26вюв7115246 0.0 10121144
18:00+23юв613615 0.0 1011386
21:00+18вюв5167557 0.0 1011335
19 мая, ср
ср1900:00+17юв515795 0.0 1011284
03:00+16вюв516780 0.0 1011288
06:00+16вюв5138064 0.0 1011317
09:00+21юв6156787 0.0 1012684
12:00+26юв6135619 0.0 10111317
15:00+27юв612539 0.0 10111866
18:00+24юв5136311 0.0 1010387
21:00+20вюв615774 0.0 1011348
20 мая, чт
чт2000:00+18вюв515850 0.0 1011386
03:00+15вюв512881 0.1 1011256
06:00+16вюв614830 0.0 1010345
09:00+20вюв7107180 0.0 1009666
12:00+23вюв8116259 0.0 10081353
15:00+22ююв9147371 2.1 10081438
18:00+19ююв712835 1.1 10091081
21:00+15юв4119244 1.2 1010278
21 мая, пт
пт2100:00+14ююв5128988 0.0 1010392
03:00+13ююв5119638 0.0 1010373
06:00+13ю599371 0.0 1010379
09:00+17ююв710746 0.0 1010972
12:00+15ююз81285100 1.4 10101066
15:00+16ю9128074 3.7 10091144
18:00+15ююз81382100 1.1 10081240
21:00+10юз81380100 1.2 1010939